SWAS

operational
NORAD ID: 25560 Int'l Des: 1998-071 Owner: GSFC Country: US
LEOCIRCULAR

关于 SWAS

正在加载描述...

实时位置

正在加载3D地球...

即将过境

高度历史

Altitude vs Time

uPlot chart will show altitude changes over time

两行轨道根数

1 25560U 98071A 26061.64025758 .00005793 00000-0 37385-3 0 9998
2 25560 69.8971 142.1245 0003362 25.2751 334.8577 15.08810310481192
Epoch: Mar 2, 2026 • Age: 27 hours

当前状态

高度 548.5 km
速度 7.59 km/s
星下点 63.33°N, 15.89°W
发射日期 Dec 6, 1998
运行时间 27.2 years
类型 other

技术详情

分类 Payload
质量 282.00 kg
干质量 282.00 kg
总质量 282.00 kg
长度 1.70 m
直径 1.00 m
跨度 2.00 m
形状 Cyl+2 Pan
制造商 GSFC
平台类型 SMEX
阶段状态 In Orbit
所有者/国家 GSFC/US

大型星座

Loading constellations...